Regional Weather Roundup
Issued by NWS

Home | Current Version | Previous Version | Text Only | Print | Product List | Glossary On
Versions: 1 2 3 4 5 6 7 8 9 10 11 12 13 14 15 16 17 18 19 20 21 22 23 24 25 26 27 28 29 30 31 32 33 34 35 36 37 38 39 40 41 42 43 44 45 46 47 48 49 50
000
ASUS44 KLUB 240110
RWRTX
WEST TEXAS WEATHER ROUNDUP
NATIONAL WEATHER SERVICE LUBBOCK TX
800 PM CDT FRI JUN 23 2017

NOTE: "FAIR" INDICATES FEW OR NO CLOUDS BELOW 12,000 FEET WITH NO
SIGNIFICANT WEATHER AND/OR OBSTRUCTIONS TO VISIBILITY.

TXZ004-006>008-010-012-014-016-OKZ002-240200-
TEXAS PANHANDLE/OKLAHOMA PANHANDLE

CITY           SKY/WX    TMP DP  RH WIND       PRES   REMARKS
AMARILLO       SUNNY     79  49  34 NE23G30   30.08R
BORGER         SUNNY     78  52  40 NE17G24   30.08R
CANADIAN       SUNNY     77  52  41 NE13G23   30.06R
DALHART        SUNNY     75  52  44 NE15      30.15R
DUMAS          SUNNY     73  50  44 NE15G21   30.11S
GUYMON           N/A     73  50  44 NE12      30.11
HEREFORD       CLOUDY    84  54  36 E18G26    30.06S
PAMPA          SUNNY     77  52  40 NE15      30.10R
PERRYTON       SUNNY     75  51  42 NE13G22   30.10R
$$

TXZ026-029-035-045-048-240200-
SOUTHERN PANHANDLE/SOUTH PLAINS/ROLLING PLAINS

CITY           SKY/WX    TMP DP  RH WIND       PRES   REMARKS
CHILDRESS      PTCLDY    89  61  38 NE14G22   29.94R
SEMINOLE       CLOUDY    84  51  32 W10G20    29.89R
LUBBOCK        PTSUNNY   89  62  40 E22G30    29.96S
PLAINVIEW      SUNNY     83  62  50 E17       30.00S
SNYDER         CLOUDY    86  61  43 E7        29.90R
$$

TXZ052-054-060>062-072-078-127-140-154-169-240200-
PERMIAN BASIN/CONCHO VALLEY/BIG COUNTRY/EDWARDS PLATEAU

CITY           SKY/WX    TMP DP  RH WIND       PRES   REMARKS
ABILENE        CLOUDY    91  64  40 SE6       29.85R
BIG SPRING     CLOUDY    69  67  93 S13G30    30.02R THUNDER
BROWNWOOD      LGT RAIN  95  66  38 E9        29.81S HX  98
JUNCTION       CLEAR     99  63  30 SE12      29.80R HX 101
MIDLAND        LGT RAIN  79  58  48 N39G48    29.96R
ODESSA         LGT RAIN  88  53  30 SE9G37    29.92F
SAN ANGELO     TSTM      85  65  51 N58G77    29.84R SQUALL
SONORA         CLEAR    100  57  23 SE12      29.84R HX  99
SWEETWATER     CLOUDY    87  55  33 SE7       29.88R
WINK           CLOUDY    87  57  35 MISG      29.84R
$$

TXZ055-058-074-075-080-082-240200-
FAR WEST/SOUTHWEST MOUNTAINS/TRANS PECOS

CITY           SKY/WX    TMP DP  RH WIND       PRES   REMARKS
ALPINE         CLOUDY    90  43  19 SW10      30.01R
DRYDEN           N/A    100  57  23 SE20G31   29.76R HX  99
EL PASO        MOSUNNY  105  29   7 NE3       29.83R HX  98
FORT STOCKTON  MOSUNNY   88  56  33 N28G41    29.89R SQUALL  HAZE
GUADALUPE PASS SUNNY     83  53  35 NE36G47   30.06R
MARFA          MOSUNNY   80  51  36 SW15      29.99R
PRESIDIO       FAIR      99  45  16 N26G35    29.78R HX  95
$$

TXZ014-016-019-021>030-083-240200
TEXAS TECH WEST TEXAS MESONET/TEXAS PANHANDLE/NORTHERN SOUTH PLAINS

CITY           SKY/WX    TMP DP  RH WIND       PRES   REMARKS
ABERNATHY 5ENE   N/A     85  62  45 NE22      29.99S
AMARILLO 9NNE    N/A     79  51  37 NE18      30.07S
AMARILLO 7SSE    N/A     81  51  35 NE20      30.09R
AMHERST 1NE      N/A     84  61  45 NE22      30.02R
BOOTLEG 11WNW    N/A     78  55  44 NE20      30.12R
CANADIAN 6E      N/A     75  51  43 N16       30.05S
CAPROCK CYN SP   N/A     85  56  36 NE17      30.00R
CHILDRESS 2NNE   N/A     87  58  37 NE17      29.94R
CLARENDON 2WSW   N/A     83  49  31 NE16      30.03R
CLAUDE 12SW      N/A     80  52  37 NE20      30.07R
DIMMITT 2NE      N/A     82  60  47 NE21      30.05S
FLOYDADA 2NNE    N/A     84  62  47 NE18      29.99S
FRIONA 2NE       N/A     80  59  47 E17       30.07R
GOODLETT 3W      N/A     89  61  39 NE21      29.91R
HART 3N          N/A     82  61  49 NE18      30.05R
HEREFORD 2NW     N/A     81  51  35 NE15      30.06S
MCLEAN 1E        N/A     79  46  31 NE15      30.05R
MEMPHIS 1NE      N/A     86  51  29 NE16      29.97R
MULESHOE 2SSW    N/A     82  61  48 NE16      30.04R
OLTON 6S         N/A     83  61  47 NE18      30.01S
PALO DURO SP     N/A     81  52  36 NE15G24   30.07S
PAMPA 2E         N/A     75  52  44 NE17      30.09R
PLAINVIEW 1S     N/A     83  64  51 NE14      30.01R
SILVERTON 7ESE   N/A     82  58  42 NE18      30.02R
TULIA 2ENE       N/A     82  61  48 NE17      30.04R
TURKEY 2WSW      N/A     87  56  34 NE22      29.97R
UMBARGER 3NNE    N/A     81  54  39 E15       30.08S
$$

TXZ033>036-039>041-045>048-240200
TEXAS TECH WEST TEXAS MESONET/SOUTH PLAINS

CITY           SKY/WX    TMP DP  RH WIND       PRES   REMARKS
AIKEN 3WSW       N/A     83  65  54 NE21      30.02S
ANDREWS 2NE      N/A     79  53  40 E18       29.92F
ANTON 6SSW       N/A     87  61  40 NE23      29.98R
BROWNFIELD 2S    N/A     83  56  38 NE7       29.97R
DENVR CTY 7WNW   N/A     87  56  34 NE24      29.94R
GAIL 2ESE        N/A     86  59  40 S9        29.93R
LAMESA 2SE       N/A     80  61  51 S7        29.95S
LEVELLAND 4S     N/A     87  58  36 NE21      29.99R
LUBBOCK 3WNW     N/A     88  60  38 NE16      29.96S
MORTON 1ENE      N/A     87  57  36 NE20      30.01R
ODONNELL 1N      N/A     83  53  35 S6        29.96R
PLAINS 3N        N/A     87  58  38 NE26G36   29.98R
RALLS 1SE        N/A     88  60  39 NE20      29.97S
REESE CENTER     N/A     86  59  39 NE20      29.97S
SEAGRAVES 1SW    N/A     82  52  35 NE10      29.92R
SEMINOLE 2NNE    N/A     83  53  35 N7        29.90R
SLATON 2NE       N/A     89  58  35 NE17      29.95S
SNYDER 3E        N/A     86  61  43 NE9       29.89R
SUNDOWN 8SW      N/A     87  59  38 NE18      29.99R
TAHOKA 3NNE      N/A     88  61  39 NE16      29.95R
WOLFFORTH 6SSW   N/A     88  60  39 NE22      29.98R
$$

TXZ031-032-036>038-042>044-240200-
TEXAS TECH WEST TEXAS MESONET/ROLLING PLAINS

CITY           SKY/WX    TMP DP  RH WIND       PRES   REMARKS
ASPERMONT 3NE    N/A     93  63  35 NE8       29.85R
FLUVANNA 3WNW    N/A     83  61  47 NE8       29.91R
GRAHAM 5SSW      N/A     84  61  45 E13       29.93R
GUTHRIE 10WSW    N/A     94  58  30 NE12      29.88S
HASKELL 1NW      N/A     95  58  28 E13       29.84R
JAYTON 1SSE      N/A     94  58  29 NE15      29.87S
KNOX CITY 3NW    N/A     95  62  33 NE12      29.85R HX  95
LK A HENRY 1NW   N/A     87  60  40 E5        29.89R
NORTHFIELD 1S    N/A     88  64  43 NE15G24   29.94R
ODELL 4ENE       N/A     89  68  49 NE14      29.91R
PADUCAH 10SW     N/A     91  65  42 NE17      29.90R
POST 1NE         N/A     88  57  35 E9        29.91R
RRING SPRGS 3N   N/A     87  66  48 NE17      29.95R
SPUR 1W          N/A     93  56  28 E13       29.89S
WEINERT 2NNE     N/A     94  65  38 NE13      29.85R HX  97
WHITE RVR 6NE    N/A     91  59  33 NE21      29.92S
$$

TXZ052-054-060>062-072-078-127-140-154-169-240200-
TEXAS TECH WEST TEXAS MESONET/PERMIAN BASIN/
CONCHO VALLEY/BIG COUNTRY/EDWARDS PLATEAU

CITY           SKY/WX    TMP DP  RH WIND       PRES   REMARKS
COYANOSA 2N    LGT RAIN  77  64  65 NE21      29.87R
JUNCTION 1SSW    N/A     99  64  31 SE7       29.80R HX 101
MERTZON 3NNE   RAIN      72  68  86 NE63G75   29.82R
SAN ANGELO 7NW   N/A     80  64  59 N51G69    29.83R
STRLNG CT 4WSW   N/A     75  67  74 E5        29.92R
ST LAWRNCE 5SW   N/A     74  64  70 N26       29.99R
SWEETWATR 11SW   N/A     81  61  50 SE7       29.88R
WALL 1E          N/A    101  59  25 N16       29.84R HX 100
$$

TXZ055-058-074-075-080-082-240200-
TEXAS TECH WEST TEXAS MESONET/FAR WEST/SOUTHWEST MOUNTAINS/TRANS PECOS

CITY           SKY/WX    TMP DP  RH WIND       PRES   REMARKS
PRSMN GAP BBNP   N/A    102  45  14 NE16      29.77R HX  98
GUADLPE MTN NP   N/A     82  50  32 NE15      30.11R
$$




USA.gov is the U.S. government's official web portal to all federal, state and local government web resources and services.